Regional Weather Roundup
Issued by NWS

Home | Current Version | Previous Version | Graphics & Text | Print | Product List | Glossary On
Versions: 1 2 3 4 5 6 7 8 9 10 11 12 13 14 15 16 17 18 19 20 21 22 23 24 25 26 27 28 29 30 31 32 33 34 35 36 37 38 39 40 41 42 43 44 45 46 47 48 49 50
000
ASUS43 KFSD 311402
RWRSD

WEATHER ROUNDUP FOR SOUTH DAKOTA
NATIONAL WEATHER SERVICE SIOUX FALLS SD
900 AM CDT MON AUG 31 2015

NOTE: "FAIR" INDICATES FEW OR NO CLOUDS BELOW 12,000 FEET WITH NO
SIGNIFICANT WEATHER AND/OR OBSTRUCTIONS TO VISIBILITY.


SDZ001>005-009-010-012>017-311500-
NORTHWEST AND NORTH CENTRAL SOUTH DAKOTA

CITY           SKY/WX    TMP DP  RH WIND       PRES   REMARKS
FAITH            N/A     65  53  65 N22G28    29.88R
MOBRIDGE       CLOUDY    71  62  73 NW16G26   29.74R HAZE
$$

SDZ012>016-024>037-041>051-057-063-072>074-311500-
SOUTHWEST AND SOUTH CENTRAL SOUTH DAKOTA

CITY           SKY/WX    TMP DP  RH WIND       PRES   REMARKS
RAPID CTY ARPT CLOUDY    67  53  61 N14       29.95R
PIERRE         CLOUDY    76  53  44 W13       29.74R
CUSTER         CLOUDY    63  49  60 NW3       30.05R
ELLSWORTH AFB  CLOUDY    67  54  61 N10       29.96R
PHILIP         CLOUDY    73  57  57 NW21G32   29.82R
PINE RIDGE     MOSUNNY   76  53  44 CALM      29.92R
WINNER         FAIR      74  52  46 SW22G31   29.80R
$$

SDZ004>011-016>023-039-040-311500-
NORTHEAST SOUTH DAKOTA

CITY           SKY/WX    TMP DP  RH WIND       PRES   REMARKS
ABERDEEN       MOSUNNY   71  63  75 S12G22    29.73R
WATERTOWN      SUNNY     69  64  84 S15G24    29.81R
BROOKINGS      PTSUNNY   66  63  88 S16G22    29.88F
$$

SDZ017-020-022-023-036>040-048>070-311500-
SOUTHEAST SOUTH DAKOTA

CITY           SKY/WX    TMP DP  RH WIND       PRES   REMARKS
SIOUX FALLS    MOSUNNY   68  65  90 S15       29.89S
HURON          SUNNY     69  64  84 S14G22    29.77R
CHAMBERLAIN    SUNNY     71  60  67 S10G17    29.79R
MITCHELL       SUNNY     69  65  86 S13G23    29.82S
YANKTON        SUNNY     68  64  88 SE6       29.88S
$$

ABBREVIATIONS USED IN REMARKS
   TC - TEMPERATURE IN CELSIUS
  WCI - WIND CHILL INDEX
   HX - HEAT INDEX
  VSB - VISIBILITY



USA.gov is the U.S. government's official web portal to all federal, state and local government web resources and services.